Leonardtown, MD

12:37 AM EDT on March 29, 2017 (GMT -0400)
Leonardtown

Weather History for K2W6 - August, 2013

Change the Weather History Date:

Friday, August 30, 2013

  Actual Average (KNHK) Record (KNHK)
Temperature  
Mean Temperature 72 °F -  
Max Temperature 82 °F 82 °F 93 °F (2010)
Min Temperature 62 °F 65 °F 53 °F (1986)
Cooling Degree Days 7    
Growing Degree Days 22 (Base 50)    
Moisture  
Dew Point 65 °F    
Average Humidity 78    
Maximum Humidity 94    
Minimum Humidity 58    
Precipitation  
Precipitation 0.00 in - - ()
Sea Level Pressure  
Sea Level Pressure 30.02 in    
Wind  
Wind Speed 3 mph (South)    
Max Wind Speed 10 mph    
Max Gust Speed -    
Averages and records for this station are not official NWS values.
T = Trace of Precipitation, MM = Missing Value Source: NWS Daily Summary

Daily Weather History Graph

Daily Weather History Graph

Search for Another Location

Airport or City:

Trip Planner

Search our weather history database for the weather conditions in past years. The results will help you decide how hot, cold, wet, or windy it might be!

Date:

Astronomy

Aug. 30, 2013 Rise Set
Actual Time 6:34 AM EDT 7:38 PM EDT
Civil Twilight 6:06 AM EDT 8:05 PM EDT
Nautical Twilight 5:34 AM EDT 8:37 PM EDT
Astronomical Twilight 5:00 AM EDT 9:11 PM EDT
Moon 1:13 AM EDT (8/30) 3:50 PM EDT (8/30)
Length of Visible Light 13h 58m
Length of Day
13h 04m
Waning Crescent, 29% of the Moon is Illuminated
Aug 30
Waning Crescent
Sep 5
New
Sep 12
First Quarter
Sep 19
Full
Sep 26
Last Quarter

Hourly Weather History & Observations

Time (EDT) Temp. Heat Index Dew Point Humidity Pressure Visibility Wind Dir Wind Speed Gust Speed Precip Events Conditions
12:13 AM 68.0 °F - 62.6 °F 83% 30.05 in - East 3.5 mph - N/A   Clear
12:33 AM 68.0 °F - 62.6 °F 83% 30.04 in - East 3.5 mph - N/A   Clear
12:53 AM 68.0 °F - 62.6 °F 83% 30.04 in - Calm Calm - N/A   Clear
1:13 AM 66.2 °F - 62.6 °F 88% 30.04 in - Calm Calm - N/A   Unknown
1:33 AM 64.4 °F - 62.6 °F 94% 30.04 in - Calm Calm - N/A   Unknown
1:53 AM 64.4 °F - 62.6 °F 94% 30.04 in - Calm Calm - N/A   Unknown
2:13 AM 64.4 °F - 62.6 °F 94% 30.03 in - Calm Calm - N/A   Unknown
2:33 AM 64.4 °F - 60.8 °F 88% 30.04 in - Calm Calm - N/A   Unknown
2:53 AM 64.4 °F - 62.6 °F 94% 30.04 in - Calm Calm - N/A   Unknown
3:13 AM 64.4 °F - 62.6 °F 94% 30.04 in - Calm Calm - N/A   Unknown
3:33 AM 64.4 °F - 62.6 °F 94% 30.05 in - Calm Calm - N/A   Unknown
3:53 AM 62.6 °F - 60.8 °F 94% 30.04 in - West 3.5 mph - N/A   Unknown
4:13 AM 62.6 °F - 60.8 °F 94% 30.04 in - Calm Calm - N/A   Unknown
4:33 AM 62.6 °F - 60.8 °F 94% 30.04 in - Calm Calm - N/A   Unknown
4:53 AM 62.6 °F - 60.8 °F 94% 30.05 in - Calm Calm - N/A   Unknown
5:13 AM 62.6 °F - 60.8 °F 94% 30.05 in - Calm Calm - N/A   Unknown
5:33 AM 62.6 °F - 60.8 °F 94% 30.05 in - Calm Calm - N/A   Unknown
5:53 AM 62.6 °F - 60.8 °F 94% 30.05 in - Calm Calm - N/A   Unknown
6:13 AM 62.6 °F - 60.8 °F 94% 30.05 in - Calm Calm - N/A   Unknown
6:33 AM 62.6 °F - 60.8 °F 94% 30.05 in - Calm Calm - N/A   Unknown
6:53 AM 62.6 °F - 60.8 °F 94% 30.06 in - Calm Calm - N/A   Unknown
7:13 AM 62.6 °F - 60.8 °F 94% 30.06 in - Calm Calm - N/A   Unknown
7:33 AM 64.4 °F - 62.6 °F 94% 30.06 in - Calm Calm - N/A   Unknown
7:53 AM 68.0 °F - 64.4 °F 88% 30.06 in - Calm Calm - N/A   Unknown
8:14 AM 69.8 °F - 64.4 °F 83% 30.06 in - Calm Calm - N/A   Unknown
8:34 AM 69.8 °F - 64.4 °F 83% 30.07 in - Calm Calm - N/A   Mostly Cloudy
8:54 AM 71.6 °F - 64.4 °F 78% 30.07 in - SSW 3.5 mph - N/A   Mostly Cloudy
9:14 AM 71.6 °F - 64.4 °F 78% 30.08 in - SW 6.9 mph - N/A   Scattered Clouds
9:34 AM 73.4 °F - 64.4 °F 73% 30.08 in - SW 5.8 mph - N/A   Mostly Cloudy
9:54 AM 71.6 °F - 64.4 °F 78% 30.07 in - WSW 4.6 mph - N/A   Mostly Cloudy
10:14 AM 73.4 °F - 64.4 °F 73% 30.07 in - WSW 5.8 mph - N/A   Mostly Cloudy
10:34 AM 73.4 °F - 64.4 °F 73% 30.06 in - SSW 6.9 mph - N/A   Scattered Clouds
10:54 AM 77.0 °F - 64.4 °F 65% 30.06 in - SSW 5.8 mph - N/A   Scattered Clouds
11:14 AM 77.0 °F - 64.4 °F 65% 30.06 in - SW 8.1 mph - N/A   Scattered Clouds
11:34 AM 77.0 °F - 64.4 °F 65% 30.06 in - WSW 8.1 mph - N/A   Clear
11:54 AM 77.0 °F - 64.4 °F 65% 30.06 in - WSW 6.9 mph - N/A   Scattered Clouds
12:14 PM 77.0 °F - 64.4 °F 65% 30.04 in - South 5.8 mph - N/A   Mostly Cloudy
12:34 PM 78.8 °F - 66.2 °F 65% 30.04 in - SW 6.9 mph - N/A   Mostly Cloudy
12:54 PM 78.8 °F - 64.4 °F 61% 30.03 in - SSW 4.6 mph - N/A   Mostly Cloudy
1:14 PM 78.8 °F - 64.4 °F 61% 30.03 in - SSW 10.4 mph - N/A   Mostly Cloudy
1:34 PM 78.8 °F - 64.4 °F 61% 30.03 in - WSW 8.1 mph - N/A   Mostly Cloudy
1:54 PM 80.6 °F 82.7 °F 66.2 °F 61% 30.02 in - SSW 6.9 mph - N/A   Mostly Cloudy
2:14 PM 80.6 °F 82.3 °F 64.4 °F 58% 30.02 in - South 4.6 mph - N/A   Mostly Cloudy
2:34 PM 80.6 °F 82.3 °F 64.4 °F 58% 30.01 in - SW 6.9 mph - N/A   Mostly Cloudy
2:54 PM 80.6 °F 82.3 °F 64.4 °F 58% 30.00 in - WSW 5.8 mph - N/A   Mostly Cloudy
3:14 PM 80.6 °F 82.7 °F 66.2 °F 61% 29.99 in - SSE 4.6 mph - N/A   Mostly Cloudy
3:34 PM 80.6 °F 82.3 °F 64.4 °F 58% 29.99 in - SSW 5.8 mph - N/A   Mostly Cloudy
3:54 PM 80.6 °F 82.3 °F 64.4 °F 58% 29.98 in - South 4.6 mph - N/A   Mostly Cloudy
4:14 PM 80.6 °F 82.7 °F 66.2 °F 61% 29.98 in - South 4.6 mph - N/A   Mostly Cloudy
4:34 PM 82.4 °F 84.6 °F 66.2 °F 58% 29.97 in - SSW 6.9 mph - N/A   Mostly Cloudy
4:54 PM 80.6 °F 82.3 °F 64.4 °F 58% 29.97 in - SSW 5.8 mph - N/A   Scattered Clouds
5:15 PM 82.4 °F 84.6 °F 66.2 °F 58% 29.97 in - SW 5.8 mph - N/A   Scattered Clouds
5:35 PM 80.6 °F 82.7 °F 66.2 °F 61% 29.97 in - SW 4.6 mph - N/A   Scattered Clouds
5:55 PM 80.6 °F 83.2 °F 68.0 °F 65% 29.97 in - SSE 3.5 mph - N/A   Scattered Clouds
6:15 PM 80.6 °F 83.2 °F 68.0 °F 65% 29.96 in - South 4.6 mph - N/A   Clear
6:35 PM 78.8 °F - 68.0 °F 69% 29.95 in - SSE 4.6 mph - N/A   Clear
6:55 PM 78.8 °F - 68.0 °F 69% 29.95 in - SE 4.6 mph - N/A   Clear
7:15 PM 77.0 °F - 68.0 °F 74% 29.95 in - SE 4.6 mph - N/A   Clear
7:35 PM 75.2 °F - 68.0 °F 78% 29.95 in - SE 4.6 mph - N/A   Clear
7:55 PM 73.4 °F - 68.0 °F 83% 29.95 in - SE 4.6 mph - N/A   Clear
8:15 PM 73.4 °F - 68.0 °F 83% 29.94 in - SE 4.6 mph - N/A   Clear
8:35 PM 73.4 °F - 68.0 °F 83% 29.95 in - SSE 5.8 mph - N/A   Clear
8:55 PM 73.4 °F - 68.0 °F 83% 29.95 in - SSE 4.6 mph - N/A   Clear
9:15 PM 73.4 °F - 68.0 °F 83% 29.96 in - SSE 4.6 mph - N/A   Clear
9:35 PM 73.4 °F - 68.0 °F 83% 29.96 in - South 4.6 mph - N/A   Clear
9:55 PM 73.4 °F - 68.0 °F 83% 29.95 in - South 4.6 mph - N/A   Clear
10:15 PM 73.4 °F - 68.0 °F 83% 29.96 in - South 4.6 mph - N/A   Clear
10:35 PM 71.6 °F - 66.2 °F 83% 29.96 in - South 5.8 mph - N/A   Clear
10:55 PM 71.6 °F - 68.0 °F 88% 29.95 in - South 5.8 mph - N/A   Clear
11:15 PM 71.6 °F - 66.2 °F 83% 29.96 in - South 5.8 mph - N/A   Clear
11:35 PM 71.6 °F - 66.2 °F 83% 29.97 in - South 4.6 mph - N/A   Clear
11:55 PM 71.6 °F - 66.2 °F 83% 29.97 in - Calm Calm - N/A   Clear